Regional Weather Roundup
Issued by NWS

Home | Current Version | Previous Version | Text Only | Print | Product List | Glossary On
Versions: 1 2 3 4 5 6 7 8 9 10 11 12 13 14 15 16 17 18 19 20 21 22 23 24 25 26 27 28 29 30 31 32 33 34 35 36 37 38 39 40 41 42 43 44 45 46 47 48 49 50
000
ASUS43 KIND 041009
RWRIN

WEATHER ROUNDUP FOR INDIANA
NATIONAL WEATHER SERVICE INDIANAPOLIS IN
600 AM EDT WED MAY 04 2016

NOTE: "FAIR" INDICATES FEW OR NO CLOUDS BELOW 12,000 FEET WITH NO
SIGNIFICANT WEATHER AND/OR OBSTRUCTIONS TO VISIBILITY.

* - STATION DOES NOT REPORT WEATHER SUCH AS PRECIPITATION OR FOG.

+ - STATION NOT QUALITY CONTROLLED BY THE NATIONAL WEATHER SERVICE.
    USE DATA WITH CAUTION...ESPECIALLY DEWPOINT AND RELATIVE
    HUMIDITY OBSERVATIONS.

INZ001>003-010>013-019-020-041100-
NORTHWEST INDIANA

CITY           SKY/WX    TMP DP  RH WIND       PRES   REMARKS
GARY /AIRPORT/ RAIN      48  48 100 N8        29.64R
KNOX *+        CLOUDY    50  45  81 SW10      29.60F
LA PORTE +     RAIN      51  51 100 NW6       29.60F
MICHIGAN CITY+ RAIN      46  46 100 N13G18    29.61S
MONTICELLO +   RAIN      50  46  85 SW8       29.63F
RENSSELAER +   LGT RAIN  50  48  93 SW13      29.62F
VALPARAISO     RAIN      50  48  93 NW9       29.61S FOG

$$

LMZ046-743>745-041100-
SOUTHERN LAKE MICHIGAN

STATION/POSITION TIME  TEMP    WIND        PRES    WAVE
                       AIR SEA DIR/SP/G            HT
                 (UTC) (F)     (DEG/KT/KT) (MB)    (FT)
BURNS HARBOR     0903   49     340/ 12/ 14 1003.4F
MICHIGAN CITY    0900   48     280/ 15/ 16   N/A

$$

INZ004-005-014>016-021>024-041100-
NORTH CENTRAL INDIANA

CITY           SKY/WX    TMP DP  RH WIND       PRES   REMARKS
GOSHEN         LGT RAIN  51  45  79 W12       29.61F
LOGANSPORT +   DRIZZLE   50  46  87 SW10      29.65S
PERU/GRISSOM   LGT RAIN  52  48  87 SW10      29.62F
ROCHESTER +    LGT RAIN  54  46  76 W18G25    29.63F
SOUTH BEND     HVY RAIN  49  48  97 W7        29.60F FOG
WARSAW +       LGT RAIN  52  45  76 SW5       29.62F

$$

INZ006>009-017-018-025>027-041100-
NORTHEAST INDIANA

CITY           SKY/WX    TMP DP  RH WIND       PRES   REMARKS
ANGOLA *+      MOCLDY    50  46  87 SW5       29.61F
AUBURN +       CLOUDY    52  43  71 SW5       29.63F
FORT WAYNE     CLOUDY    51  45  79 SW9       29.64F
HUNTINGTON +   CLOUDY    51  45  79 SW7       29.63F

$$

INZ028-029-035-036-043>045-051>053-041100-
WEST CENTRAL INDIANA

CITY           SKY/WX    TMP DP  RH WIND       PRES   REMARKS
CRAWFORDSVL +  DRIZZLE   49  46  88 SW9       29.67F
GREENCASTLE +  CLOUDY    50  45  81 SW5       29.69F
LAFAYETTE      RAIN      50  46  86 W8        29.66S FOG
TERRE HAUTE    LGT RAIN  53  43  68 SW10      29.71F

$$

INZ030>032-037>040-046>048-054>057-064-065-041100-
CENTRAL INDIANA

CITY           SKY/WX    TMP DP  RH WIND       PRES   REMARKS
CP ATTERBURY + CLOUDY    50  45  81 SW8       29.73F
FISHERS *+     PTCLDY    50  46  87 SW7       29.68F
FRANKFORT +    LGT RAIN  52  38  58 SW14      29.67F
GREENWOOD *+   PTCLDY    52  43  71 SW7       29.71F
INDIANAPOLIS   MOCLDY    52  43  71 SW12      29.68F
-EAGLE CREEK   CLOUDY    53  43  68 SW7       29.67F
KOKOMO *+      CLOUDY    54  43  66 SW13      29.64F
MARION +       CLOUDY    50  45  81 S10       29.65F
SHELBYVILLE    MOCLDY    52  46  80 S8        29.70F
ZIONSVILLE +   CLOUDY    51  43  74 SW13      29.68F

$$

INZ033-034-041-042-049-050-058-059-041100-
EAST CENTRAL INDIANA

CITY           SKY/WX    TMP DP  RH WIND       PRES   REMARKS
MUNCIE         PTCLDY    52  44  74 SW9       29.67F

$$

INZ060-061-067>069-081>083-085>088-041100-
SOUTHWEST INDIANA

CITY           SKY/WX    TMP DP  RH WIND       PRES   REMARKS
EVANSVILLE     PTCLDY    48  44  86 W5        29.79F
HUNTINGBURG *+ PTCLDY    48  43  81 SW7       29.78F
WASHINGTON +   CLOUDY    53  46  76 SW10      29.74F

$$

INZ062-063-066-070>080-084-089>092-041100-
SOUTH CENTRAL AND SOUTHEAST INDIANA

CITY           SKY/WX    TMP DP  RH WIND       PRES   REMARKS
BEDFORD +      CLOUDY    50  48  93 SW7       29.74F
BLOOMINGTON    CLOUDY    52  42  69 SW9       29.73F
MADISON *+     CLOUDY    50  45  81 SW6       29.77F
NORTH VERNON + CLOUDY   N/A N/A N/A CALM      29.75
SEYMOUR +      PTCLDY    52  45  76 CALM      29.75F

$$





USA.gov is the U.S. government's official web portal to all federal, state and local government web resources and services.